Starlink 32273

operational
NORAD ID: 61956 Int'l Des: 2024-209 Owner: SPXS Country: US Constellation: starlink
LEOCIRCULAR

About Starlink 32273

Description loading...

Live Position

Loading 3D Globe...

Upcoming Passes

Altitude History

Altitude vs Time

uPlot chart will show altitude changes over time

Two-Line Element Set

1 61956U 24209T 25349.92157852 .00030477 00000-0 10367-2 0 9996
2 61956 53.1577 171.3530 0001128 84.0822 276.0307 15.30204603 62077
Epoch: Dec 15, 2025 • Age: 28 hours

Current Status

Altitude 475.2 km
Velocity 7.63 km/s
Sub-Earth Point 21.34°N, 60.07°E
Launch Date Nov 14, 2024
Age 1 years
Type internet

Technical Details

Classification Payload
Mass 730.00 kg
Dry Mass 700.00 kg
Total Mass 730.00 kg
Length 0.30 m
Diameter 4.10 m
Span 29.00 m
Shape Box + pan
Manufacturer SPXS
Bus Type Starlink V2M
Phase Status In Orbit
Owner/State SPXS/US

Large Constellations

Loading constellations...